Regional Weather Roundup
Issued by NWS

Home | Current Version | Previous Version | Text Only | Print | Product List | Glossary Off
Versions: 1 2 3 4 5 6 7 8 9 10 11 12 13 14 15 16 17 18 19 20 21 22 23 24 25 26 27 28 29 30 31 32 33 34 35 36 37 38 39 40 41 42 43 44 45 46 47 48 49 50

000
ASUS45 KBOU 261507
RWRCO

WEATHER ROUNDUP FOR COLORADO
NATIONAL WEATHER SERVICE DENVER/BOULDER CO
900 AM MDT THU MAR 26 2015

NOTE: "FAIR" INDICATES FEW OR NO CLOUDS BELOW 12000 FEET WITH NO
SIGNIFICANT WEATHER AND/OR OBSTRUCTIONS TO VISIBILITY.

COZ001>005-013-030-031-261600-
...NORTHWEST COLORADO...

CITY           SKY/WX    TMP DP  RH WIND       PRES   REMARKS
CRAIG          SUNNY     29  24  82 CALM      30.38S
HAYDEN         SUNNY     28  19  69 E9        30.36F WCI  20
MEEKER         SUNNY     32  21  64 NE3       30.38F
MOUNT WERNER   NOT AVBL
STEAMBOAT SPGS SUNNY     23  19  85 CALM      30.37F
WALDEN         SUNNY     28  19  69 S10       30.31S WCI  19
$$

COZ006>008-011-261600-
...WEST CENTRAL VALLEYS...

CITY           SKY/WX    TMP DP  RH WIND       PRES   REMARKS
GRAND JUNCTION SUNNY     38  19  46 SE8       30.38S
MONTROSE       SUNNY     35  16  45 S3        30.41F
EAGLE          NOT AVBL
RIFLE          SUNNY     32  20  61 CALM      30.41F
DELTA          SUNNY     37  17  45 E3        30.41S
NUCLA          SUNNY     36  14  41 CALM      30.41S
$$

COZ017>023-064>068-261600-
...SOUTHWEST COLORADO...

CITY           SKY/WX    TMP DP  RH WIND       PRES   REMARKS
DURANGO        SUNNY     33  15  47 CALM      30.33R
CORTEZ         SUNNY     39  16  39 NE8       30.33R
PAGOSA SPRINGS SUNNY     36   7  29 CALM      30.35R
TELLURIDE      MOSUNNY  N/A N/A N/A CALM      30.39F
WOLF CREEK PAS SUNNY     23   5  46 N16       30.40R WCI  10
$$

COZ009-010-012-014-032>034-037-058>063-261600-
...CENTRAL COLORADO...

CITY           SKY/WX    TMP DP  RH WIND       PRES   REMARKS
ASPEN          SUNNY     27  15  61 SE5       30.38F WCI  22
BUENA VISTA    MOSUNNY   32   9  38 NW20G29   30.30S WCI  20
COPPER MTN     CLOUDY    19  10  68 W13G23    30.34R WCI   7
BERTHOUD PASS  CLOUDY     9   1  72 MISG      30.27F
COTTONWOOD PAS MOSUNNY   32  10  40 S5        30.31S WCI  27
GUNNISON       SUNNY     25  16  68 CALM      30.41S
KREMMLING      SUNNY     30  21  69 CALM      30.38F
LEADVILLE      MOSUNNY   21   8  57 N10       30.33F WCI  10
SALIDA         MOSUNNY   32  16  51 N6        30.39S WCI  27
SUNLIGHT       SUNNY     23  12  63 CALM      30.41F
WILKERSON PASS PTSUNNY   23  10  58 N7G22     30.31R WCI  15
$$

COZ069>075-261600-
...SAN LUIS VALLEY/SANGRE DE CRISTO MOUNTAINS...

CITY           SKY/WX    TMP DP  RH WIND       PRES   REMARKS
ALAMOSA        SUNNY     32  17  54 S3        30.34R
LA VETA PASS   SUNNY     23  14  68 W7        30.31R WCI  15
SAGUACHE       MOSUNNY   36  10  35 N13G20    30.33S
$$

COZ035-036-038>040-261600-
...NORTHERN COLORADO FRONT RANGE...

CITY           SKY/WX    TMP DP  RH WIND       PRES   REMARKS
DENVER INTL AP MOSUNNY   40  24  53 SW12      30.22S
DMNS CITY PARK   N/A     40  21  46 S9        30.23S
AURORA         NOT AVBL
FRONT RANGE AP PTSUNNY   41  27  56 SW8       30.22F
ERIE MUNI ARPT SUNNY     40  33  76 S3        30.22S
BOULDER MUN AP SUNNY     41  32  70 CALM      30.20F
CENTENNIAL     MOSUNNY   40  20  44 SW7       30.23S
BROOMFIELD     PTSUNNY   45  23  42 SW6       30.22F
FORT COLLINS   MOSUNNY   36  34  93 S6        30.21S
LONGMONT       MOSUNNY   41  34  76 S3        30.22F
$$

COZ041-046-047-076>085-087-088-261600-
...PIKES PEAK/PALMER DIVIDE AND SOUTHERN FOOTHILLS...

CITY           SKY/WX    TMP DP  RH WIND       PRES   REMARKS
COLO. SPRINGS  MOSUNNY   42  22  44 N6        30.25S
A. F. ACADEMY  MOSUNNY   33  23  67 NE5       30.24S WCI  28
ELLICOTT       LGT RAIN N/A N/A N/A N5        30.24S
FALCON         SUNNY     40  15  36 NW7       30.25S
FORT CARSON    SUNNY     38  23  55 N7        30.24R
LIMON          SUNNY     36  26  67 W10       30.23R
MONUMENT HILL  SUNNY     36  19  51 W8        30.23S
TRINIDAD       SUNNY     33  24  69 W17       30.27S WCI  22
$$

COZ042>045-048>051-090-091-261600-
...NORTHEAST COLORADO...

CITY           SKY/WX    TMP DP  RH WIND       PRES   REMARKS
GREELEY ARPT   MOSUNNY   32  25  74 CALM      30.20S
AKRON          PTSUNNY   37  29  72 W16       30.18F
BURLINGTON     SUNNY     41  33  73 W10       30.20F
WRAY           CLOUDY    39  33  79 W12G17    30.17F
STERLING       CLOUDY    36  32  87 SW7       30.18F
HOLYOKE        PTSUNNY   41  34  75 W14       30.16S
FORT MORGAN    CLOUDY    33  32  98 W10       30.21S FOG     WCI  24
$$

COZ086-089-092>099-261600-
...SOUTHEAST COLORADO...

CITY           SKY/WX    TMP DP  RH WIND       PRES   REMARKS
PUEBLO         SUNNY     36  27  69 NW8       30.26R
LA JUNTA       SUNNY     37  29  72 W13       30.26R
LAMAR          SUNNY     38  33  82 W13       30.24S
SPRINGFIELD      N/A     42  35  76 W3        30.24S
$$



USA.gov is the U.S. government's official web portal to all federal, state and local government web resources and services.